owner,sensor,date,latitude,longitude,air_pressure(mBar),qcFlag 
WAVCIS,ioos:station:WAVCIS:CSI06:1,2011-09-01T00:00:00Z,28.8667,-90.4833,1013.02,11111222 
WAVCIS,ioos:station:WAVCIS:CSI06:1,2011-09-01T01:00:00Z,28.8667,-90.4833,1013.26,11111222 
WAVCIS,ioos:station:WAVCIS:CSI06:1,2011-09-01T02:00:00Z,28.8667,-90.4833,1013.87,11111222 
WAVCIS,ioos:station:WAVCIS:CSI06:1,2011-09-01T03:00:00Z,28.8667,-90.4833,1014.11,11111222 
WAVCIS,ioos:station:WAVCIS:CSI06:1,2011-09-01T04:00:00Z,28.8667,-90.4833,1014.08,11111222 
WAVCIS,ioos:station:WAVCIS:CSI06:1,2011-09-01T05:00:00Z,28.8667,-90.4833,1013.75,11111222 
WAVCIS,ioos:station:WAVCIS:CSI06:1,2011-09-01T06:00:00Z,28.8667,-90.4833,1013.32,11111222 
WAVCIS,ioos:station:WAVCIS:CSI06:1,2011-09-01T07:00:00Z,28.8667,-90.4833,1012.45,11111222 
WAVCIS,ioos:station:WAVCIS:CSI06:1,2011-09-01T08:00:00Z,28.8667,-90.4833,1011.95,11111222 
WAVCIS,ioos:station:WAVCIS:CSI06:1,2011-09-01T09:00:00Z,28.8667,-90.4833,1011.72,11111222 
WAVCIS,ioos:station:WAVCIS:CSI06:1,2011-09-01T10:00:00Z,28.8667,-90.4833,1011.57,11111222 
WAVCIS,ioos:station:WAVCIS:CSI06:1,2011-09-01T11:00:00Z,28.8667,-90.4833,1011.84,11111222 
WAVCIS,ioos:station:WAVCIS:CSI06:1,2011-09-01T12:00:00Z,28.8667,-90.4833,1012.0,11111222 
WAVCIS,ioos:station:WAVCIS:CSI06:1,2011-09-01T13:00:00Z,28.8667,-90.4833,1012.12,11111222 
WAVCIS,ioos:station:WAVCIS:CSI06:1,2011-09-01T14:00:00Z,28.8667,-90.4833,1012.26,11111222 
WAVCIS,ioos:station:WAVCIS:CSI06:1,2011-09-01T15:00:00Z,28.8667,-90.4833,1013.05,11111222 
WAVCIS,ioos:station:WAVCIS:CSI06:1,2011-09-01T16:00:00Z,28.8667,-90.4833,1013.28,11111222 
WAVCIS,ioos:station:WAVCIS:CSI06:1,2011-09-01T17:00:00Z,28.8667,-90.4833,1011.06,11111222 
WAVCIS,ioos:station:WAVCIS:CSI06:1,2011-09-01T18:00:00Z,28.8667,-90.4833,1011.91,11111222 
WAVCIS,ioos:station:WAVCIS:CSI06:1,2011-09-01T19:00:00Z,28.8667,-90.4833,1012.43,11111222 
WAVCIS,ioos:station:WAVCIS:CSI06:1,2011-09-01T20:00:00Z,28.8667,-90.4833,1011.72,11111222 
WAVCIS,ioos:station:WAVCIS:CSI06:1,2011-09-01T21:00:00Z,28.8667,-90.4833,1011.39,11111222 
WAVCIS,ioos:station:WAVCIS:CSI06:1,2011-09-01T22:00:00Z,28.8667,-90.4833,1010.75,11111222 
WAVCIS,ioos:station:WAVCIS:CSI06:1,2011-09-01T23:00:00Z,28.8667,-90.4833,1010.48,11111222 
WAVCIS,ioos:station:WAVCIS:CSI06:1,2011-09-02T00:00:00Z,28.8667,-90.4833,1010.66,11111222 
WAVCIS,ioos:station:WAVCIS:CSI06:1,2011-09-02T01:00:00Z,28.8667,-90.4833,1010.4,11111222 
WAVCIS,ioos:station:WAVCIS:CSI06:1,2011-09-02T02:00:00Z,28.8667,-90.4833,1010.39,11111222 
WAVCIS,ioos:station:WAVCIS:CSI06:1,2011-09-02T03:00:00Z,28.8667,-90.4833,1010.82,11111222 
WAVCIS,ioos:station:WAVCIS:CSI06:1,2011-09-02T04:00:00Z,28.8667,-90.4833,1010.62,11111222 
WAVCIS,ioos:station:WAVCIS:CSI06:1,2011-09-02T05:00:00Z,28.8667,-90.4833,1010.21,11111222 
WAVCIS,ioos:station:WAVCIS:CSI06:1,2011-09-02T06:00:00Z,28.8667,-90.4833,1009.51,11111222 
WAVCIS,ioos:station:WAVCIS:CSI06:1,2011-09-02T07:00:00Z,28.8667,-90.4833,1009.35,11111222 
WAVCIS,ioos:station:WAVCIS:CSI06:1,2011-09-02T08:00:00Z,28.8667,-90.4833,1008.93,11111222 
WAVCIS,ioos:station:WAVCIS:CSI06:1,2011-09-02T09:00:00Z,28.8667,-90.4833,1008.21,11111222 
WAVCIS,ioos:station:WAVCIS:CSI06:1,2011-09-02T10:00:00Z,28.8667,-90.4833,1007.95,11111222 
WAVCIS,ioos:station:WAVCIS:CSI06:1,2011-09-02T11:00:00Z,28.8667,-90.4833,1007.79,11111222 
WAVCIS,ioos:station:WAVCIS:CSI06:1,2011-09-02T12:00:00Z,28.8667,-90.4833,1008.0,11111222 
WAVCIS,ioos:station:WAVCIS:CSI06:1,2011-09-02T13:00:00Z,28.8667,-90.4833,1007.53,11111222 
WAVCIS,ioos:station:WAVCIS:CSI06:1,2011-09-02T14:00:00Z,28.8667,-90.4833,1007.24,11111222 
WAVCIS,ioos:station:WAVCIS:CSI06:1,2011-09-02T15:00:00Z,28.8667,-90.4833,1006.583,11111222 
WAVCIS,ioos:station:WAVCIS:CSI06:1,2011-09-02T16:00:00Z,28.8667,-90.4833,1007.37,11111222 
WAVCIS,ioos:station:WAVCIS:CSI06:1,2011-09-02T17:00:00Z,28.8667,-90.4833,1007.29,11111222 
WAVCIS,ioos:station:WAVCIS:CSI06:1,2011-09-02T18:00:00Z,28.8667,-90.4833,1007.17,11111222 
WAVCIS,ioos:station:WAVCIS:CSI06:1,2011-09-02T19:00:00Z,28.8667,-90.4833,1005.694,11111222 
WAVCIS,ioos:station:WAVCIS:CSI06:1,2011-09-02T20:00:00Z,28.8667,-90.4833,1006.21,11111222 
WAVCIS,ioos:station:WAVCIS:CSI06:1,2011-09-02T21:00:00Z,28.8667,-90.4833,1005.087,11111222 
WAVCIS,ioos:station:WAVCIS:CSI06:1,2011-09-02T22:00:00Z,28.8667,-90.4833,1005.219,11111222 
WAVCIS,ioos:station:WAVCIS:CSI06:1,2011-09-02T23:00:00Z,28.8667,-90.4833,1004.945,11111222 
WAVCIS,ioos:station:WAVCIS:CSI06:1,2011-09-03T00:00:00Z,28.8667,-90.4833,1003.984,11111222 
WAVCIS,ioos:station:WAVCIS:CSI06:1,2011-09-03T01:00:00Z,28.8667,-90.4833,1003.779,11111222 
WAVCIS,ioos:station:WAVCIS:CSI06:1,2011-09-03T02:00:00Z,28.8667,-90.4833,1002.184,11111222 
WAVCIS,ioos:station:WAVCIS:CSI06:1,2011-09-03T03:00:00Z,28.8667,-90.4833,1002.812,11111222 
WAVCIS,ioos:station:WAVCIS:CSI06:1,2011-09-03T04:00:00Z,28.8667,-90.4833,1002.198,11111222 
WAVCIS,ioos:station:WAVCIS:CSI06:1,2011-09-03T05:00:00Z,28.8667,-90.4833,1004.103,11111222 
WAVCIS,ioos:station:WAVCIS:CSI06:1,2011-09-03T06:00:00Z,28.8667,-90.4833,1000.389,11111222 
WAVCIS,ioos:station:WAVCIS:CSI06:1,2011-09-03T07:00:00Z,28.8667,-90.4833,1000.195,11111222 
WAVCIS,ioos:station:WAVCIS:CSI06:1,2011-09-03T08:00:00Z,28.8667,-90.4833,1000.91,11111222 
WAVCIS,ioos:station:WAVCIS:CSI06:1,2011-09-03T09:00:00Z,28.8667,-90.4833,999.332,11111222 
WAVCIS,ioos:station:WAVCIS:CSI06:1,2011-09-03T10:00:00Z,28.8667,-90.4833,998.427,11111222 
WAVCIS,ioos:station:WAVCIS:CSI06:1,2011-09-03T11:00:00Z,28.8667,-90.4833,998.117,11111222 
WAVCIS,ioos:station:WAVCIS:CSI06:1,2011-09-03T12:00:00Z,28.8667,-90.4833,997.841,11111222 
WAVCIS,ioos:station:WAVCIS:CSI06:1,2011-09-03T13:00:00Z,28.8667,-90.4833,997.87,11111222 
WAVCIS,ioos:station:WAVCIS:CSI06:1,2011-09-03T14:00:00Z,28.8667,-90.4833,998.451,11111222 
WAVCIS,ioos:station:WAVCIS:CSI06:1,2011-09-03T15:00:00Z,28.8667,-90.4833,998.779,11111222 
WAVCIS,ioos:station:WAVCIS:CSI06:1,2011-09-03T16:00:00Z,28.8667,-90.4833,999.14,11111222 
WAVCIS,ioos:station:WAVCIS:CSI06:1,2011-09-03T17:00:00Z,28.8667,-90.4833,999.018,11111222 
WAVCIS,ioos:station:WAVCIS:CSI06:1,2011-09-03T18:00:00Z,28.8667,-90.4833,999.023,11111222 
WAVCIS,ioos:station:WAVCIS:CSI06:1,2011-09-03T19:00:00Z,28.8667,-90.4833,998.484,11111222 
WAVCIS,ioos:station:WAVCIS:CSI06:1,2011-09-03T20:00:00Z,28.8667,-90.4833,997.816,11111222 
WAVCIS,ioos:station:WAVCIS:CSI06:1,2011-09-03T21:00:00Z,28.8667,-90.4833,997.742,11111222 
WAVCIS,ioos:station:WAVCIS:CSI06:1,2011-09-03T22:00:00Z,28.8667,-90.4833,997.149,11111222 
WAVCIS,ioos:station:WAVCIS:CSI06:1,2011-09-03T23:00:00Z,28.8667,-90.4833,996.66,11111222 
WAVCIS,ioos:station:WAVCIS:CSI06:1,2011-09-04T00:00:00Z,28.8667,-90.4833,996.804,11111222 
WAVCIS,ioos:station:WAVCIS:CSI06:1,2011-09-04T01:00:00Z,28.8667,-90.4833,997.257,11111222 
WAVCIS,ioos:station:WAVCIS:CSI06:1,2011-09-04T02:00:00Z,28.8667,-90.4833,997.972,11111222 
WAVCIS,ioos:station:WAVCIS:CSI06:1,2011-09-04T03:00:00Z,28.8667,-90.4833,998.455,11111222 
WAVCIS,ioos:station:WAVCIS:CSI06:1,2011-09-04T04:00:00Z,28.8667,-90.4833,998.769,11111222 
WAVCIS,ioos:station:WAVCIS:CSI06:1,2011-09-04T05:00:00Z,28.8667,-90.4833,998.258,11111222 
WAVCIS,ioos:station:WAVCIS:CSI06:1,2011-09-04T06:00:00Z,28.8667,-90.4833,997.858,11111222 
WAVCIS,ioos:station:WAVCIS:CSI06:1,2011-09-04T07:00:00Z,28.8667,-90.4833,997.856,11111222 
WAVCIS,ioos:station:WAVCIS:CSI06:1,2011-09-04T08:00:00Z,28.8667,-90.4833,997.836,11111222 
WAVCIS,ioos:station:WAVCIS:CSI06:1,2011-09-04T09:00:00Z,28.8667,-90.4833,997.693,11111222 
WAVCIS,ioos:station:WAVCIS:CSI06:1,2011-09-04T10:00:00Z,28.8667,-90.4833,997.691,11111222 
WAVCIS,ioos:station:WAVCIS:CSI06:1,2011-09-04T11:00:00Z,28.8667,-90.4833,998.17,11111222 
WAVCIS,ioos:station:WAVCIS:CSI06:1,2011-09-04T12:00:00Z,28.8667,-90.4833,998.35,11111222 
WAVCIS,ioos:station:WAVCIS:CSI06:1,2011-09-04T13:00:00Z,28.8667,-90.4833,998.568,11111222 
WAVCIS,ioos:station:WAVCIS:CSI06:1,2011-09-04T14:00:00Z,28.8667,-90.4833,999.701,11111222 
WAVCIS,ioos:station:WAVCIS:CSI06:1,2011-09-04T15:00:00Z,28.8667,-90.4833,999.73,11111222 
WAVCIS,ioos:station:WAVCIS:CSI06:1,2011-09-04T16:00:00Z,28.8667,-90.4833,999.641,11111222 
WAVCIS,ioos:station:WAVCIS:CSI06:1,2011-09-04T17:00:00Z,28.8667,-90.4833,999.871,11111222 
WAVCIS,ioos:station:WAVCIS:CSI06:1,2011-09-04T18:00:00Z,28.8667,-90.4833,999.879,11111222 
WAVCIS,ioos:station:WAVCIS:CSI06:1,2011-09-04T19:00:00Z,28.8667,-90.4833,999.677,11111222 
WAVCIS,ioos:station:WAVCIS:CSI06:1,2011-09-04T20:00:00Z,28.8667,-90.4833,999.22,11111222 
WAVCIS,ioos:station:WAVCIS:CSI06:1,2011-09-04T21:00:00Z,28.8667,-90.4833,999.263,11111222 
WAVCIS,ioos:station:WAVCIS:CSI06:1,2011-09-04T22:00:00Z,28.8667,-90.4833,999.257,11111222 
WAVCIS,ioos:station:WAVCIS:CSI06:1,2011-09-04T23:00:00Z,28.8667,-90.4833,999.685,11111222 
WAVCIS,ioos:station:WAVCIS:CSI06:1,2011-09-05T00:00:00Z,28.8667,-90.4833,999.459,11111222 
WAVCIS,ioos:station:WAVCIS:CSI06:1,2011-09-05T01:00:00Z,28.8667,-90.4833,999.679,11111222 
WAVCIS,ioos:station:WAVCIS:CSI06:1,2011-09-05T02:00:00Z,28.8667,-90.4833,1000.065,11111222 
WAVCIS,ioos:station:WAVCIS:CSI06:1,2011-09-05T03:00:00Z,28.8667,-90.4833,1000.189,11111222 
WAVCIS,ioos:station:WAVCIS:CSI06:1,2011-09-05T04:00:00Z,28.8667,-90.4833,1000.042,11111222 
WAVCIS,ioos:station:WAVCIS:CSI06:1,2011-09-05T05:00:00Z,28.8667,-90.4833,999.625,11111222 
WAVCIS,ioos:station:WAVCIS:CSI06:1,2011-09-05T06:00:00Z,28.8667,-90.4833,999.24,11111222 
WAVCIS,ioos:station:WAVCIS:CSI06:1,2011-09-05T07:00:00Z,28.8667,-90.4833,999.054,11111222 
WAVCIS,ioos:station:WAVCIS:CSI06:1,2011-09-05T20:00:00Z,28.8667,-90.4833,999.054,11111222 
WAVCIS,ioos:station:WAVCIS:CSI06:1,2011-09-05T21:00:00Z,28.8667,-90.4833,1005.499,11111222 
WAVCIS,ioos:station:WAVCIS:CSI06:1,2011-09-05T22:00:00Z,28.8667,-90.4833,1007.05,11111222 
WAVCIS,ioos:station:WAVCIS:CSI06:1,2011-09-05T23:00:00Z,28.8667,-90.4833,1007.33,11111222 
WAVCIS,ioos:station:WAVCIS:CSI06:1,2011-09-06T00:00:00Z,28.8667,-90.4833,1007.91,11111222 
WAVCIS,ioos:station:WAVCIS:CSI06:1,2011-09-06T01:00:00Z,28.8667,-90.4833,1008.97,11111222 
WAVCIS,ioos:station:WAVCIS:CSI06:1,2011-09-06T02:00:00Z,28.8667,-90.4833,1010.25,11111222 
WAVCIS,ioos:station:WAVCIS:CSI06:1,2011-09-06T03:00:00Z,28.8667,-90.4833,1011.17,11111222 
WAVCIS,ioos:station:WAVCIS:CSI06:1,2011-09-06T04:00:00Z,28.8667,-90.4833,1011.58,11111222 
WAVCIS,ioos:station:WAVCIS:CSI06:1,2011-09-06T05:00:00Z,28.8667,-90.4833,1011.9,11111222 
WAVCIS,ioos:station:WAVCIS:CSI06:1,2011-09-06T06:00:00Z,28.8667,-90.4833,1011.99,11111222 
WAVCIS,ioos:station:WAVCIS:CSI06:1,2011-09-06T07:00:00Z,28.8667,-90.4833,1011.99,11111222 
WAVCIS,ioos:station:WAVCIS:CSI06:1,2011-09-06T08:00:00Z,28.8667,-90.4833,1011.85,11111222 
WAVCIS,ioos:station:WAVCIS:CSI06:1,2011-09-06T09:00:00Z,28.8667,-90.4833,1012.14,11111222 
WAVCIS,ioos:station:WAVCIS:CSI06:1,2011-09-06T10:00:00Z,28.8667,-90.4833,1012.1,11111222 
WAVCIS,ioos:station:WAVCIS:CSI06:1,2011-09-06T11:00:00Z,28.8667,-90.4833,1012.55,11111222 
WAVCIS,ioos:station:WAVCIS:CSI06:1,2011-09-06T12:00:00Z,28.8667,-90.4833,1013.21,11111222 
WAVCIS,ioos:station:WAVCIS:CSI06:1,2011-09-06T13:00:00Z,28.8667,-90.4833,1013.71,11111222 
WAVCIS,ioos:station:WAVCIS:CSI06:1,2011-09-06T14:00:00Z,28.8667,-90.4833,1014.34,11111222 
WAVCIS,ioos:station:WAVCIS:CSI06:1,2011-09-06T15:00:00Z,28.8667,-90.4833,1014.77,11111222 
WAVCIS,ioos:station:WAVCIS:CSI06:1,2011-09-06T16:00:00Z,28.8667,-90.4833,1014.89,11111222 
WAVCIS,ioos:station:WAVCIS:CSI06:1,2011-09-06T17:00:00Z,28.8667,-90.4833,1015.0,11111222 
WAVCIS,ioos:station:WAVCIS:CSI06:1,2011-09-06T18:00:00Z,28.8667,-90.4833,1014.65,11111222 
WAVCIS,ioos:station:WAVCIS:CSI06:1,2011-09-06T19:00:00Z,28.8667,-90.4833,1014.29,11111222 
WAVCIS,ioos:station:WAVCIS:CSI06:1,2011-09-06T20:00:00Z,28.8667,-90.4833,1013.79,11111222 
WAVCIS,ioos:station:WAVCIS:CSI06:1,2011-09-06T21:00:00Z,28.8667,-90.4833,1013.36,11111222 
WAVCIS,ioos:station:WAVCIS:CSI06:1,2011-09-06T22:00:00Z,28.8667,-90.4833,1013.42,11111222 
WAVCIS,ioos:station:WAVCIS:CSI06:1,2011-09-06T23:00:00Z,28.8667,-90.4833,1013.15,11111222 
WAVCIS,ioos:station:WAVCIS:CSI06:1,2011-09-07T00:00:00Z,28.8667,-90.4833,1012.98,11111222 
WAVCIS,ioos:station:WAVCIS:CSI06:1,2011-09-07T01:00:00Z,28.8667,-90.4833,1013.58,11111222 
WAVCIS,ioos:station:WAVCIS:CSI06:1,2011-09-07T02:00:00Z,28.8667,-90.4833,1014.2,11111222 
WAVCIS,ioos:station:WAVCIS:CSI06:1,2011-09-07T03:00:00Z,28.8667,-90.4833,1014.7,11111222 
WAVCIS,ioos:station:WAVCIS:CSI06:1,2011-09-07T04:00:00Z,28.8667,-90.4833,1015.33,11111222 
WAVCIS,ioos:station:WAVCIS:CSI06:1,2011-09-07T05:00:00Z,28.8667,-90.4833,1015.39,11111222 
WAVCIS,ioos:station:WAVCIS:CSI06:1,2011-09-07T06:00:00Z,28.8667,-90.4833,1015.46,11111222 
WAVCIS,ioos:station:WAVCIS:CSI06:1,2011-09-07T07:00:00Z,28.8667,-90.4833,1015.15,11111222 
WAVCIS,ioos:station:WAVCIS:CSI06:1,2011-09-07T08:00:00Z,28.8667,-90.4833,1014.87,11111222 
WAVCIS,ioos:station:WAVCIS:CSI06:1,2011-09-07T09:00:00Z,28.8667,-90.4833,1014.71,11111222 
WAVCIS,ioos:station:WAVCIS:CSI06:1,2011-09-07T10:00:00Z,28.8667,-90.4833,1014.97,11111222 
WAVCIS,ioos:station:WAVCIS:CSI06:1,2011-09-07T11:00:00Z,28.8667,-90.4833,1015.33,11111222 
WAVCIS,ioos:station:WAVCIS:CSI06:1,2011-09-07T12:00:00Z,28.8667,-90.4833,1016.18,11111222 
WAVCIS,ioos:station:WAVCIS:CSI06:1,2011-09-07T13:00:00Z,28.8667,-90.4833,1016.53,11111222 
WAVCIS,ioos:station:WAVCIS:CSI06:1,2011-09-07T14:00:00Z,28.8667,-90.4833,1016.74,11111222 
WAVCIS,ioos:station:WAVCIS:CSI06:1,2011-09-07T15:00:00Z,28.8667,-90.4833,1017.09,11111222 
WAVCIS,ioos:station:WAVCIS:CSI06:1,2011-09-07T16:00:00Z,28.8667,-90.4833,1017.24,11111222 
WAVCIS,ioos:station:WAVCIS:CSI06:1,2011-09-07T17:00:00Z,28.8667,-90.4833,1016.79,11111222 
WAVCIS,ioos:station:WAVCIS:CSI06:1,2011-09-07T18:00:00Z,28.8667,-90.4833,1016.36,11111222 
WAVCIS,ioos:station:WAVCIS:CSI06:1,2011-09-07T19:00:00Z,28.8667,-90.4833,1015.82,11111222 
WAVCIS,ioos:station:WAVCIS:CSI06:1,2011-09-07T20:00:00Z,28.8667,-90.4833,1015.49,11111222 
WAVCIS,ioos:station:WAVCIS:CSI06:1,2011-09-07T21:00:00Z,28.8667,-90.4833,1015.33,11111222 
WAVCIS,ioos:station:WAVCIS:CSI06:1,2011-09-07T22:00:00Z,28.8667,-90.4833,1015.4,11111222 
WAVCIS,ioos:station:WAVCIS:CSI06:1,2011-09-07T23:00:00Z,28.8667,-90.4833,1015.7,11111222 
WAVCIS,ioos:station:WAVCIS:CSI06:1,2011-09-08T00:00:00Z,28.8667,-90.4833,1015.64,11111222 
WAVCIS,ioos:station:WAVCIS:CSI06:1,2011-09-08T01:00:00Z,28.8667,-90.4833,1015.79,11111222 
WAVCIS,ioos:station:WAVCIS:CSI06:1,2011-09-08T02:00:00Z,28.8667,-90.4833,1016.34,11111222 
WAVCIS,ioos:station:WAVCIS:CSI06:1,2011-09-08T03:00:00Z,28.8667,-90.4833,1016.87,11111222 
WAVCIS,ioos:station:WAVCIS:CSI06:1,2011-09-08T04:00:00Z,28.8667,-90.4833,1017.07,11111222 
WAVCIS,ioos:station:WAVCIS:CSI06:1,2011-09-08T05:00:00Z,28.8667,-90.4833,1016.61,11111222 
WAVCIS,ioos:station:WAVCIS:CSI06:1,2011-09-08T06:00:00Z,28.8667,-90.4833,1016.36,11111222 
WAVCIS,ioos:station:WAVCIS:CSI06:1,2011-09-08T07:00:00Z,28.8667,-90.4833,1016.09,11111222 
WAVCIS,ioos:station:WAVCIS:CSI06:1,2011-09-08T08:00:00Z,28.8667,-90.4833,1015.86,11111222 
WAVCIS,ioos:station:WAVCIS:CSI06:1,2011-09-08T09:00:00Z,28.8667,-90.4833,1015.63,11111222 
WAVCIS,ioos:station:WAVCIS:CSI06:1,2011-09-08T10:00:00Z,28.8667,-90.4833,1015.8,11111222 
WAVCIS,ioos:station:WAVCIS:CSI06:1,2011-09-08T11:00:00Z,28.8667,-90.4833,1016.25,11111222 
WAVCIS,ioos:station:WAVCIS:CSI06:1,2011-09-08T12:00:00Z,28.8667,-90.4833,1016.28,11111222 
WAVCIS,ioos:station:WAVCIS:CSI06:1,2011-09-08T13:00:00Z,28.8667,-90.4833,1016.76,11111222 
WAVCIS,ioos:station:WAVCIS:CSI06:1,2011-09-08T14:00:00Z,28.8667,-90.4833,1016.97,11111222 
WAVCIS,ioos:station:WAVCIS:CSI06:1,2011-09-08T15:00:00Z,28.8667,-90.4833,1017.24,11111222 
WAVCIS,ioos:station:WAVCIS:CSI06:1,2011-09-08T16:00:00Z,28.8667,-90.4833,1017.39,11111222 
WAVCIS,ioos:station:WAVCIS:CSI06:1,2011-09-08T17:00:00Z,28.8667,-90.4833,1017.19,11111222 
WAVCIS,ioos:station:WAVCIS:CSI06:1,2011-09-08T18:00:00Z,28.8667,-90.4833,1016.82,11111222 
WAVCIS,ioos:station:WAVCIS:CSI06:1,2011-09-08T19:00:00Z,28.8667,-90.4833,1016.28,11111222 
WAVCIS,ioos:station:WAVCIS:CSI06:1,2011-09-08T20:00:00Z,28.8667,-90.4833,1015.33,11111222 
WAVCIS,ioos:station:WAVCIS:CSI06:1,2011-09-08T21:00:00Z,28.8667,-90.4833,1014.71,11111222 
WAVCIS,ioos:station:WAVCIS:CSI06:1,2011-09-08T22:00:00Z,28.8667,-90.4833,1014.37,11111222 
WAVCIS,ioos:station:WAVCIS:CSI06:1,2011-09-08T23:00:00Z,28.8667,-90.4833,1014.45,11111222 
WAVCIS,ioos:station:WAVCIS:CSI06:1,2011-09-09T00:00:00Z,28.8667,-90.4833,1014.57,11111222 
WAVCIS,ioos:station:WAVCIS:CSI06:1,2011-09-09T01:00:00Z,28.8667,-90.4833,1014.83,11111222 
WAVCIS,ioos:station:WAVCIS:CSI06:1,2011-09-09T02:00:00Z,28.8667,-90.4833,1015.33,11111222 
WAVCIS,ioos:station:WAVCIS:CSI06:1,2011-09-09T03:00:00Z,28.8667,-90.4833,1015.82,11111222 
WAVCIS,ioos:station:WAVCIS:CSI06:1,2011-09-09T04:00:00Z,28.8667,-90.4833,1015.85,11111222 
WAVCIS,ioos:station:WAVCIS:CSI06:1,2011-09-09T05:00:00Z,28.8667,-90.4833,1015.41,11111222 
WAVCIS,ioos:station:WAVCIS:CSI06:1,2011-09-09T06:00:00Z,28.8667,-90.4833,1015.25,11111222 
WAVCIS,ioos:station:WAVCIS:CSI06:1,2011-09-09T07:00:00Z,28.8667,-90.4833,1014.95,11111222 
WAVCIS,ioos:station:WAVCIS:CSI06:1,2011-09-09T08:00:00Z,28.8667,-90.4833,1014.67,11111222 
WAVCIS,ioos:station:WAVCIS:CSI06:1,2011-09-09T09:00:00Z,28.8667,-90.4833,1014.41,11111222 
WAVCIS,ioos:station:WAVCIS:CSI06:1,2011-09-09T10:00:00Z,28.8667,-90.4833,1014.33,11111222 
WAVCIS,ioos:station:WAVCIS:CSI06:1,2011-09-09T11:00:00Z,28.8667,-90.4833,1014.57,11111222 
WAVCIS,ioos:station:WAVCIS:CSI06:1,2011-09-09T12:00:00Z,28.8667,-90.4833,1014.85,11111222 
WAVCIS,ioos:station:WAVCIS:CSI06:1,2011-09-09T13:00:00Z,28.8667,-90.4833,1015.22,11111222 
WAVCIS,ioos:station:WAVCIS:CSI06:1,2011-09-09T14:00:00Z,28.8667,-90.4833,1015.69,11111222 
WAVCIS,ioos:station:WAVCIS:CSI06:1,2011-09-09T15:00:00Z,28.8667,-90.4833,1016.06,11111222 
WAVCIS,ioos:station:WAVCIS:CSI06:1,2011-09-09T16:00:00Z,28.8667,-90.4833,1016.46,11111222 
WAVCIS,ioos:station:WAVCIS:CSI06:1,2011-09-09T17:00:00Z,28.8667,-90.4833,1016.53,11111222 
WAVCIS,ioos:station:WAVCIS:CSI06:1,2011-09-09T18:00:00Z,28.8667,-90.4833,1016.19,11111222 
WAVCIS,ioos:station:WAVCIS:CSI06:1,2011-09-09T19:00:00Z,28.8667,-90.4833,1015.49,11111222 
WAVCIS,ioos:station:WAVCIS:CSI06:1,2011-09-09T20:00:00Z,28.8667,-90.4833,1014.87,11111222 
WAVCIS,ioos:station:WAVCIS:CSI06:1,2011-09-09T21:00:00Z,28.8667,-90.4833,1013.85,11111222 
WAVCIS,ioos:station:WAVCIS:CSI06:1,2011-09-09T22:00:00Z,28.8667,-90.4833,1013.56,11111222 
WAVCIS,ioos:station:WAVCIS:CSI06:1,2011-09-09T23:00:00Z,28.8667,-90.4833,1014.1,11111222 
WAVCIS,ioos:station:WAVCIS:CSI06:1,2011-09-10T00:00:00Z,28.8667,-90.4833,1014.24,11111222 
WAVCIS,ioos:station:WAVCIS:CSI06:1,2011-09-10T01:00:00Z,28.8667,-90.4833,1014.46,11111222 
WAVCIS,ioos:station:WAVCIS:CSI06:1,2011-09-10T02:00:00Z,28.8667,-90.4833,1014.89,11111222 
WAVCIS,ioos:station:WAVCIS:CSI06:1,2011-09-10T03:00:00Z,28.8667,-90.4833,1015.32,11111222 
WAVCIS,ioos:station:WAVCIS:CSI06:1,2011-09-10T04:00:00Z,28.8667,-90.4833,1015.64,11111222 
WAVCIS,ioos:station:WAVCIS:CSI06:1,2011-09-10T05:00:00Z,28.8667,-90.4833,1015.63,11111222 
WAVCIS,ioos:station:WAVCIS:CSI06:1,2011-09-10T06:00:00Z,28.8667,-90.4833,1015.27,11111222 
WAVCIS,ioos:station:WAVCIS:CSI06:1,2011-09-10T07:00:00Z,28.8667,-90.4833,1015.1,11111222 
WAVCIS,ioos:station:WAVCIS:CSI06:1,2011-09-10T08:00:00Z,28.8667,-90.4833,1015.02,11111222 
WAVCIS,ioos:station:WAVCIS:CSI06:1,2011-09-10T09:00:00Z,28.8667,-90.4833,1015.01,11111222 
WAVCIS,ioos:station:WAVCIS:CSI06:1,2011-09-10T10:00:00Z,28.8667,-90.4833,1015.02,11111222 
WAVCIS,ioos:station:WAVCIS:CSI06:1,2011-09-10T11:00:00Z,28.8667,-90.4833,1015.49,11111222 
WAVCIS,ioos:station:WAVCIS:CSI06:1,2011-09-10T12:00:00Z,28.8667,-90.4833,1016.01,11111222 
WAVCIS,ioos:station:WAVCIS:CSI06:1,2011-09-10T13:00:00Z,28.8667,-90.4833,1016.54,11111222 
WAVCIS,ioos:station:WAVCIS:CSI06:1,2011-09-10T14:00:00Z,28.8667,-90.4833,1016.96,11111222 
WAVCIS,ioos:station:WAVCIS:CSI06:1,2011-09-10T15:00:00Z,28.8667,-90.4833,1017.28,11111222 
WAVCIS,ioos:station:WAVCIS:CSI06:1,2011-09-10T16:00:00Z,28.8667,-90.4833,1017.58,11111222 
WAVCIS,ioos:station:WAVCIS:CSI06:1,2011-09-10T17:00:00Z,28.8667,-90.4833,1017.7,11111222 
WAVCIS,ioos:station:WAVCIS:CSI06:1,2011-09-10T18:00:00Z,28.8667,-90.4833,1017.36,11111222 
WAVCIS,ioos:station:WAVCIS:CSI06:1,2011-09-10T19:00:00Z,28.8667,-90.4833,1016.83,11111222 
WAVCIS,ioos:station:WAVCIS:CSI06:1,2011-09-10T20:00:00Z,28.8667,-90.4833,1016.29,11111222 
WAVCIS,ioos:station:WAVCIS:CSI06:1,2011-09-10T21:00:00Z,28.8667,-90.4833,1015.83,11111222 
WAVCIS,ioos:station:WAVCIS:CSI06:1,2011-09-10T22:00:00Z,28.8667,-90.4833,1015.87,11111222 
WAVCIS,ioos:station:WAVCIS:CSI06:1,2011-09-10T23:00:00Z,28.8667,-90.4833,1016.13,11111222 
WAVCIS,ioos:station:WAVCIS:CSI06:1,2011-09-11T00:00:00Z,28.8667,-90.4833,1016.19,11111222 
WAVCIS,ioos:station:WAVCIS:CSI06:1,2011-09-11T01:00:00Z,28.8667,-90.4833,1016.55,11111222 
WAVCIS,ioos:station:WAVCIS:CSI06:1,2011-09-11T02:00:00Z,28.8667,-90.4833,1016.98,11111222 
WAVCIS,ioos:station:WAVCIS:CSI06:1,2011-09-11T03:00:00Z,28.8667,-90.4833,1017.39,11111222 
WAVCIS,ioos:station:WAVCIS:CSI06:1,2011-09-11T04:00:00Z,28.8667,-90.4833,1017.8,11111222 
WAVCIS,ioos:station:WAVCIS:CSI06:1,2011-09-11T05:00:00Z,28.8667,-90.4833,1017.51,11111222 
WAVCIS,ioos:station:WAVCIS:CSI06:1,2011-09-11T06:00:00Z,28.8667,-90.4833,1017.47,11111222 
WAVCIS,ioos:station:WAVCIS:CSI06:1,2011-09-11T07:00:00Z,28.8667,-90.4833,1017.38,11111222 
WAVCIS,ioos:station:WAVCIS:CSI06:1,2011-09-11T08:00:00Z,28.8667,-90.4833,1017.06,11111222 
WAVCIS,ioos:station:WAVCIS:CSI06:1,2011-09-11T09:00:00Z,28.8667,-90.4833,1016.95,11111222 
WAVCIS,ioos:station:WAVCIS:CSI06:1,2011-09-11T10:00:00Z,28.8667,-90.4833,1017.03,11111222 
WAVCIS,ioos:station:WAVCIS:CSI06:1,2011-09-11T11:00:00Z,28.8667,-90.4833,1017.36,11111222 
WAVCIS,ioos:station:WAVCIS:CSI06:1,2011-09-11T12:00:00Z,28.8667,-90.4833,1017.85,11111222 
WAVCIS,ioos:station:WAVCIS:CSI06:1,2011-09-11T13:00:00Z,28.8667,-90.4833,1018.68,11111222 
WAVCIS,ioos:station:WAVCIS:CSI06:1,2011-09-11T14:00:00Z,28.8667,-90.4833,1019.23,11111222 
WAVCIS,ioos:station:WAVCIS:CSI06:1,2011-09-11T15:00:00Z,28.8667,-90.4833,1019.65,11111222 
WAVCIS,ioos:station:WAVCIS:CSI06:1,2011-09-11T16:00:00Z,28.8667,-90.4833,1020.04,11111222 
WAVCIS,ioos:station:WAVCIS:CSI06:1,2011-09-11T17:00:00Z,28.8667,-90.4833,1020.19,11111222 
WAVCIS,ioos:station:WAVCIS:CSI06:1,2011-09-11T18:00:00Z,28.8667,-90.4833,1019.98,11111222 
WAVCIS,ioos:station:WAVCIS:CSI06:1,2011-09-11T19:00:00Z,28.8667,-90.4833,1019.35,11111222 
WAVCIS,ioos:station:WAVCIS:CSI06:1,2011-09-11T20:00:00Z,28.8667,-90.4833,1018.76,11111222 
WAVCIS,ioos:station:WAVCIS:CSI06:1,2011-09-11T21:00:00Z,28.8667,-90.4833,1018.25,11111222 
WAVCIS,ioos:station:WAVCIS:CSI06:1,2011-09-11T22:00:00Z,28.8667,-90.4833,1018.22,11111222 
WAVCIS,ioos:station:WAVCIS:CSI06:1,2011-09-11T23:00:00Z,28.8667,-90.4833,1017.99,11111222 
WAVCIS,ioos:station:WAVCIS:CSI06:1,2011-09-12T00:00:00Z,28.8667,-90.4833,1017.8,11111222 
WAVCIS,ioos:station:WAVCIS:CSI06:1,2011-09-12T01:00:00Z,28.8667,-90.4833,1018.07,11111222 
WAVCIS,ioos:station:WAVCIS:CSI06:1,2011-09-12T02:00:00Z,28.8667,-90.4833,1018.83,11111222 
WAVCIS,ioos:station:WAVCIS:CSI06:1,2011-09-12T03:00:00Z,28.8667,-90.4833,1019.31,11111222 
WAVCIS,ioos:station:WAVCIS:CSI06:1,2011-09-12T04:00:00Z,28.8667,-90.4833,1019.76,11111222 
WAVCIS,ioos:station:WAVCIS:CSI06:1,2011-09-12T05:00:00Z,28.8667,-90.4833,1019.86,11111222 
WAVCIS,ioos:station:WAVCIS:CSI06:1,2011-09-12T06:00:00Z,28.8667,-90.4833,1019.5,11111222 
WAVCIS,ioos:station:WAVCIS:CSI06:1,2011-09-12T07:00:00Z,28.8667,-90.4833,1019.07,11111222 
WAVCIS,ioos:station:WAVCIS:CSI06:1,2011-09-12T08:00:00Z,28.8667,-90.4833,1018.66,11111222 
WAVCIS,ioos:station:WAVCIS:CSI06:1,2011-09-12T09:00:00Z,28.8667,-90.4833,1018.55,11111222 
WAVCIS,ioos:station:WAVCIS:CSI06:1,2011-09-12T10:00:00Z,28.8667,-90.4833,1018.63,11111222 